Regional Weather Roundup
Issued by NWS Lake Charles, LA

Home | Current Version | Previous Version | Text Only | Print | Product List | Glossary On
Versions: 1 2 3 4 5 6 7 8 9 10 11 12 13 14 15 16 17 18 19 20 21 22 23 24 25 26 27 28 29 30 31 32 33 34 35 36 37 38 39 40 41 42 43 44 45 46 47 48 49 50
000
ASUS44 KLCH 050810
RWRLCH
RWRLCH
REGIONAL WEATHER ROUNDUP
NATIONAL WEATHER SERVICE LAKE CHARLES LA
300 AM CDT SUN JUL 05 2015

Note: "fair" indicates few or no clouds below 12,000 feet with no
significant weather and/or obstructions to visibility.


ACROSS SOUTHEAST TEXAS

CITY           SKY/WX    TMP DP  RH WIND       PRES   REMARKS
BEAUMONT       PTCLDY    79  77  94 S3        30.04R
BEAUMONT CITY  PTSUNNY   76  75  98 CALM      30.05R
ORANGE         MOSUNNY   79  79 100 CALM      30.05S
JASPER         PTCLDY    76  75  97 CALM      30.06R
$$

ACROSS CENTRAL LOUISIANA

CITY           SKY/WX    TMP DP  RH WIND       PRES   REMARKS
LEESVILLE      CLOUDY    74  73  96 SE6       30.04S
FULLERTON      CLOUDY    76  72  87 CALM      30.03R
ALEXANDRIA INT CLOUDY    71  71 100 SE3       30.03S
ESLER FIELD    CLOUDY    73  69  87 CALM      30.05S
DERIDDER       FOG       74  73  95 SE3       30.07R VSB 1/2
OAKDALE        CLOUDY    74  73  96 CALM      30.05S
OPELOUSAS        N/A     74  74  98 CALM      30.05R
$$

ACROSS SOUTHWEST AND SOUTH CENTRAL LOUISIANA

CITY           SKY/WX    TMP DP  RH WIND       PRES   REMARKS
SULPHUR        MOSUNNY   79  77  94 S5        30.04F
LAKE CHARLES   MOCLDY    79  77  94 CALM      30.04S
CHENNAULT INT  MOCLDY    77  76  97 CALM      30.05R
CAMERON PHI    MOSUNNY   84  77  79 S13       30.07S
DEQUINCY       FOG       76  76 100 CALM      30.05R VSB 1/2
JENNINGS         N/A     76  75  96 CALM      30.05R
LAFAYETTE      CLOUDY    77  75  93 S3        30.05R
NEW IBERIA     NOT AVBL
ABBEVILLE        N/A     76  75  99 CALM      30.05S FOG
PATTERSON      CLOUDY    79  75  89 SE5       30.06F
SALT POINT       N/A     81  76  84 S3        30.03F
$$

SELECTED SITES ACROSS THE REGION

CITY           SKY/WX    TMP DP  RH WIND       PRES   REMARKS
HOUSTON BUSH   PTCLDY    80  77  90 S3        30.02S
HOUSTON HOBBY  PTCLDY    79  77  94 S5        30.01F
GALVESTON      PTCLDY    83  79  88 S10       30.04S
COLLEGE STAT   CLEAR     78  75  90 S6        30.01R
CONROE         CLEAR     76  74  93 SE5       30.03S FOG
HUNTSVILLE     PTCLDY    78  75  90 S8        30.02S
LUFKIN         FOG       76  72  87 SE3       30.03S VSB 1
SHREVEPORT     CLOUDY    74  71  91 S6        30.02R
MONROE         CLOUDY    71  71 100 CALM      30.05S
NATCHEZ MS     CLOUDY    72  70  94 CALM      30.07S
BATON ROUGE    LGT RAIN  74  72  93 E5        30.05S FOG
N.O. INTL ARPT MOCLDY    80  73  79 SE6       30.06S
SLIDELL        MOCLDY    74  73  97 CALM      30.06S
$$

MARINE REPORTS

STATION/POSITION TIME  TEMP    WIND        PRES    VSBY  WAVE
                       AIR SEA DIR/SP/G                  HT/PER
                 (UTC) (F)     (DEG/KT/KT) (MB)    (MI)  (FT/S)
BUOY 30 S HIGH I 0750   84 83  180/ 12/ 14 1016.2F         3/ 5
SEA RIM ST PARK  0700   83     180/ 12/ 13 1017.6F
PORT ARTHUR      0700      84  190/  4/  6 1017.1F
SABINE PASS N    0700   83 84  200/  7/ 10 1017.3F
TEXAS POINT      NOT AVBL
CALCASIEU PASS   0700   84 85  200/ 12/ 14   N/A
LK CHARLES BEACH 0700   79 86                N/A
MARSH ISLAND     0700   85     190/  6/  9   N/A           0
FRESH WATER LOCK 0700   83 85  160/  7/  9 1017.5F
AMERADA PASS     0700   81 83  150/  2/  2 1017.7F
$$


USA.gov is the U.S. government's official web portal to all federal, state and local government web resources and services.